DLH122 EDDH-EDDF

Flight info

Callsign DLH122
Flight time N/A
Altitude 30000
Route AMLUH2G AMLUH M852 DENIX DCT RIMET/N0453F310 T157 KOKEB/N0410F230 T157 KERAX KERAX5A
Aircraft A320/M-SDE3FGHIRWY/LB1

Departure

Time 2026-05-06 15:02
Airport Hamburg Helmut Schmidt Airport (EDDH)

Arrival

Time N/A
Airport Frankfurt Main Airport (EDDF)
Time Latitude Longitude Altitude Speed Heading
2026-05-06 14:28 53.63247 10.00361 51 ft 0 kts 87°
2026-05-06 14:53 53.63246 10.00328 51 ft 4 kts 87°
2026-05-06 14:53 53.63244 10.00287 51 ft 4 kts 87°
2026-05-06 14:53 53.63243 10.00245 51 ft 4 kts 87°
2026-05-06 14:54 53.63242 10.00211 51 ft 4 kts 101°
2026-05-06 14:54 53.63252 10.00181 51 ft 4 kts 158°
2026-05-06 14:54 53.63271 10.00174 48 ft 1 kts 176°
2026-05-06 14:54 53.63272 10.00174 48 ft 0 kts 176°
2026-05-06 14:57 53.63270 10.00174 48 ft 1 kts 176°
2026-05-06 14:57 53.63244 10.00177 51 ft 6 kts 176°
2026-05-06 14:57 53.63190 10.00183 51 ft 8 kts 176°
2026-05-06 14:57 53.63139 10.00188 51 ft 7 kts 176°
2026-05-06 14:58 53.63099 10.00193 49 ft 5 kts 176°
2026-05-06 14:58 53.63057 10.00169 49 ft 11 kts 210°
2026-05-06 14:58 53.63000 10.00110 49 ft 9 kts 212°
2026-05-06 14:58 53.62954 10.00061 50 ft 7 kts 212°
2026-05-06 14:59 53.62918 9.99985 50 ft 12 kts 242°
2026-05-06 14:59 53.62898 9.99922 50 ft 0 kts 242°
2026-05-06 15:00 53.62898 9.99920 50 ft 0 kts 242°
2026-05-06 15:00 53.62898 9.99919 50 ft 0 kts 242°
2026-05-06 15:01 53.62892 9.99901 49 ft 8 kts 242°
2026-05-06 15:01 53.62876 9.99751 49 ft 14 kts 305°
2026-05-06 15:01 53.62909 9.99708 50 ft 0 kts 330°
2026-05-06 15:01 53.62959 9.99664 49 ft 34 kts 332°
2026-05-06 15:02 53.63393 9.99291 51 ft 102 kts 333°
2026-05-06 15:02 53.64191 9.98605 52 ft 153 kts 333°
2026-05-06 15:02 53.65237 9.97715 332 ft 173 kts 336°
2026-05-06 15:02 53.66281 9.96831 1186 ft 166 kts 338°
2026-05-06 15:03 53.67350 9.95916 1639 ft 182 kts 339°
2026-05-06 15:03 53.68560 9.94945 1949 ft 202 kts 348°
2026-05-06 15:03 53.69958 9.94691 2523 ft 204 kts
2026-05-06 15:03 53.71374 9.94711 3360 ft 204 kts
2026-05-06 15:04 53.72680 9.95496 4032 ft 203 kts 45°
2026-05-06 15:04 53.73386 9.97539 4743 ft 206 kts 74°
2026-05-06 15:04 53.73778 9.99894 5517 ft 211 kts 74°
2026-05-06 15:04 53.74085 10.02342 6325 ft 216 kts 88°
2026-05-06 15:05 53.73808 10.04856 6955 ft 233 kts 112°
2026-05-06 15:05 53.72991 10.07387 7373 ft 258 kts 117°
2026-05-06 15:05 53.72070 10.10102 7992 ft 272 kts 118°
2026-05-06 15:05 53.71121 10.12892 8885 ft 277 kts 119°
2026-05-06 15:06 53.70154 10.15740 9708 ft 282 kts 119°
2026-05-06 15:06 53.69007 10.18448 10475 ft 286 kts 133°
2026-05-06 15:06 53.67432 10.20627 10932 ft 304 kts 149°
2026-05-06 15:06 53.65409 10.22027 11143 ft 328 kts 164°
2026-05-06 15:07 53.63135 10.23050 11401 ft 346 kts 164°
2026-05-06 15:07 53.60788 10.24099 12041 ft 350 kts 164°
2026-05-06 15:07 53.58429 10.25158 12803 ft 351 kts 164°
2026-05-06 15:07 53.56053 10.26233 13471 ft 356 kts 164°
2026-05-06 15:08 53.53653 10.27331 14116 ft 359 kts 165°
2026-05-06 15:08 53.51235 10.28438 14723 ft 362 kts 165°
2026-05-06 15:08 53.48793 10.29556 15309 ft 366 kts 165°
2026-05-06 15:08 53.46327 10.30681 15890 ft 369 kts 166°
2026-05-06 15:09 53.43841 10.31817 16504 ft 372 kts 166°
2026-05-06 15:09 53.41336 10.32959 17102 ft 375 kts 166°
2026-05-06 15:09 53.38808 10.34101 17653 ft 378 kts 167°
2026-05-06 15:09 53.36259 10.35246 18235 ft 380 kts 167°
2026-05-06 15:10 53.33687 10.36398 18720 ft 383 kts 167°
2026-05-06 15:10 53.31100 10.37553 19218 ft 386 kts 167°
2026-05-06 15:10 53.28493 10.38714 19672 ft 390 kts 166°
2026-05-06 15:10 53.25899 10.39875 20158 ft 392 kts 166°
2026-05-06 15:11 53.23249 10.41063 20625 ft 395 kts 166°
2026-05-06 15:11 53.20589 10.42257 21072 ft 398 kts 166°
2026-05-06 15:11 53.17909 10.43460 21521 ft 401 kts 166°
2026-05-06 15:11 53.15201 10.44658 21957 ft 403 kts 167°
2026-05-06 15:12 53.12416 10.45350 22417 ft 405 kts 177°
2026-05-06 15:12 53.09595 10.45248 22916 ft 407 kts 185°
2026-05-06 15:12 53.06753 10.44825 23380 ft 411 kts 185°
2026-05-06 15:12 53.03902 10.44422 23776 ft 412 kts 185°
2026-05-06 15:13 53.01033 10.44032 24104 ft 415 kts 184°
2026-05-06 15:13 52.98138 10.43647 24435 ft 418 kts 184°
2026-05-06 15:13 52.95229 10.43264 24769 ft 420 kts 184°
2026-05-06 15:13 52.92315 10.42878 25124 ft 422 kts 184°
2026-05-06 15:14 52.89384 10.42487 25489 ft 423 kts 184°
2026-05-06 15:14 52.86436 10.42086 25808 ft 426 kts 184°
2026-05-06 15:14 52.83478 10.41678 26164 ft 428 kts 184°
2026-05-06 15:14 52.80502 10.41265 26484 ft 430 kts 184°
2026-05-06 15:15 52.77517 10.40852 26833 ft 432 kts 185°
2026-05-06 15:15 52.74554 10.40448 27200 ft 432 kts 185°
2026-05-06 15:15 52.71508 10.40037 27481 ft 435 kts 185°
2026-05-06 15:15 52.68529 10.39638 27754 ft 437 kts 184°
2026-05-06 15:16 52.65482 10.39230 28061 ft 440 kts 184°
2026-05-06 15:16 52.62432 10.38821 28377 ft 441 kts 184°
2026-05-06 15:16 52.59363 10.38409 28703 ft 442 kts 184°
2026-05-06 15:16 52.56294 10.37997 28959 ft 444 kts 184°
2026-05-06 15:17 52.53211 10.37585 29343 ft 443 kts 186°
2026-05-06 15:17 52.50141 10.37177 29710 ft 443 kts 186°
2026-05-06 15:17 52.47065 10.36767 29811 ft 441 kts 186°
2026-05-06 15:18 52.40977 10.35953 29811 ft 438 kts 186°
2026-05-06 15:18 52.34897 10.35139 29812 ft 438 kts 186°
2026-05-06 15:19 52.28831 10.34333 29808 ft 437 kts 186°
2026-05-06 15:19 52.22776 10.33532 29809 ft 436 kts 186°
2026-05-06 15:20 52.16726 10.32730 29805 ft 436 kts 186°
2026-05-06 15:20 52.10679 10.31936 29798 ft 436 kts 186°
2026-05-06 15:21 52.04634 10.31143 29786 ft 435 kts 186°
2026-05-06 15:21 51.98596 10.30364 29783 ft 435 kts 186°
2026-05-06 15:22 51.92565 10.29568 29759 ft 435 kts 187°
2026-05-06 15:22 51.86681 10.28797 29796 ft 420 kts 187°
2026-05-06 15:23 51.80881 10.28044 29790 ft 417 kts 187°
2026-05-06 15:23 51.75112 10.27290 29790 ft 416 kts 187°
2026-05-06 15:24 51.69344 10.26541 29791 ft 416 kts 187°
2026-05-06 15:24 51.63575 10.25803 29785 ft 416 kts 187°
2026-05-06 15:25 51.57809 10.25063 29756 ft 415 kts 187°
2026-05-06 15:25 51.52048 10.24326 29757 ft 416 kts 187°
2026-05-06 15:26 51.46278 10.23586 29761 ft 416 kts 187°
2026-05-06 15:26 51.40510 10.22852 29761 ft 416 kts 187°
2026-05-06 15:27 51.34740 10.22117 29735 ft 416 kts 187°
2026-05-06 15:27 51.28947 10.21637 29742 ft 418 kts 183°
2026-05-06 15:28 51.23109 10.21598 29744 ft 420 kts 182°
2026-05-06 15:28 51.17306 10.21608 29746 ft 420 kts 182°
2026-05-06 15:29 51.11456 10.21521 29723 ft 421 kts 183°
2026-05-06 15:29 51.08505 10.21460 29483 ft 425 kts 183°
2026-05-06 15:29 51.05545 10.21397 29197 ft 427 kts 183°
2026-05-06 15:29 51.02572 10.21334 28914 ft 428 kts 183°
2026-05-06 15:30 50.99594 10.21276 28631 ft 429 kts 182°
2026-05-06 15:30 50.96603 10.21223 28350 ft 430 kts 182°
2026-05-06 15:30 50.93607 10.21174 28073 ft 431 kts 182°
2026-05-06 15:30 50.90607 10.21123 27801 ft 432 kts 182°
2026-05-06 15:31 50.87599 10.21071 27517 ft 432 kts 183°
2026-05-06 15:31 50.84633 10.20480 27207 ft 429 kts 196°
2026-05-06 15:31 50.81885 10.18722 26383 ft 425 kts 211°
2026-05-06 15:32 50.77504 10.12663 24939 ft 418 kts 232°
2026-05-06 15:32 50.75928 10.08838 24236 ft 415 kts 242°
2026-05-06 15:32 50.74611 10.04795 23556 ft 413 kts 242°
2026-05-06 15:32 50.73308 10.00773 22811 ft 410 kts 242°
2026-05-06 15:33 50.72020 9.96779 22165 ft 406 kts 242°
2026-05-06 15:33 50.70749 9.92832 21531 ft 402 kts 242°
2026-05-06 15:33 50.69490 9.88921 20939 ft 397 kts 242°
2026-05-06 15:33 50.68248 9.85047 20351 ft 393 kts 242°
2026-05-06 15:34 50.67020 9.81221 19802 ft 389 kts 242°
2026-05-06 15:34 50.65800 9.77430 19243 ft 385 kts 242°
2026-05-06 15:34 50.64586 9.73695 18736 ft 381 kts 240°
2026-05-06 15:34 50.63082 9.70293 18232 ft 376 kts 229°
2026-05-06 15:35 50.61203 9.67475 17701 ft 372 kts 217°
2026-05-06 15:35 50.59023 9.65323 17215 ft 368 kts 207°
2026-05-06 15:35 50.56674 9.63802 16736 ft 364 kts 202°
2026-05-06 15:35 50.54347 9.62392 16253 ft 361 kts 202°
2026-05-06 15:36 50.51986 9.60952 15748 ft 358 kts 202°
2026-05-06 15:36 50.49703 9.59555 15242 ft 356 kts 202°
2026-05-06 15:36 50.47387 9.58137 14840 ft 361 kts 202°
2026-05-06 15:36 50.45032 9.56662 14744 ft 366 kts 203°
2026-05-06 15:37 50.42668 9.55138 14769 ft 368 kts 203°
2026-05-06 15:37 50.40282 9.53663 14767 ft 369 kts 198°
2026-05-06 15:37 50.37770 9.52828 14772 ft 371 kts 187°
2026-05-06 15:37 50.35190 9.52829 14767 ft 372 kts 175°
2026-05-06 15:38 50.32626 9.53416 14770 ft 373 kts 173°
2026-05-06 15:38 50.30058 9.54024 14768 ft 373 kts 173°
2026-05-06 15:38 50.27485 9.54625 14774 ft 373 kts 173°
2026-05-06 15:38 50.24913 9.55220 14763 ft 374 kts 173°
2026-05-06 15:39 50.22336 9.55810 14778 ft 375 kts 173°
2026-05-06 15:39 50.19752 9.56400 14540 ft 376 kts 173°
2026-05-06 15:39 50.17136 9.56997 13593 ft 384 kts 173°
2026-05-06 15:39 50.14484 9.57606 12848 ft 385 kts 173°
2026-05-06 15:40 50.11888 9.58208 12704 ft 370 kts 174°
2026-05-06 15:40 50.09355 9.58314 12564 ft 361 kts 189°
2026-05-06 15:40 50.06968 9.57240 12409 ft 357 kts 206°
2026-05-06 15:40 50.04926 9.55101 12255 ft 356 kts 224°
2026-05-06 15:41 50.03395 9.52090 12090 ft 354 kts 240°
2026-05-06 15:41 50.02446 9.48563 11864 ft 351 kts 249°
2026-05-06 15:41 50.01646 9.45068 11720 ft 336 kts 250°
2026-05-06 15:41 50.00884 9.41732 11602 ft 315 kts 250°
2026-05-06 15:42 50.00177 9.38645 11456 ft 292 kts 249°
2026-05-06 15:42 49.99527 9.35816 11333 ft 272 kts 249°
2026-05-06 15:42 49.98905 9.33119 11014 ft 261 kts 249°
2026-05-06 15:42 49.98299 9.30488 10575 ft 256 kts 250°
2026-05-06 15:43 49.98043 9.27761 10193 ft 259 kts 274°
2026-05-06 15:43 49.98552 9.25084 9954 ft 262 kts 299°
2026-05-06 15:43 49.99791 9.22998 9830 ft 268 kts 325°
2026-05-06 15:43 50.01535 9.21987 9707 ft 273 kts 352°
2026-05-06 15:44 50.03423 9.22339 9584 ft 276 kts 18°
2026-05-06 15:44 50.05238 9.23331 9448 ft 275 kts 18°
2026-05-06 15:44 50.06977 9.24455 9311 ft 267 kts 26°
2026-05-06 15:44 50.08541 9.25940 9177 ft 262 kts 35°
2026-05-06 15:45 50.09938 9.27738 9043 ft 259 kts 44°
2026-05-06 15:45 50.10762 9.29079 8954 ft 259 kts 49°
2026-05-06 15:45 50.11852 9.31326 8818 ft 260 kts 58°
2026-05-06 15:45 50.12720 9.33779 8691 ft 259 kts 66°
2026-05-06 15:46 50.13366 9.36381 8557 ft 257 kts 71°
2026-05-06 15:46 50.13970 9.39006 8425 ft 257 kts 71°
2026-05-06 15:46 50.14588 9.41625 8253 ft 258 kts 66°
2026-05-06 15:46 50.15616 9.43862 8117 ft 254 kts 40°
2026-05-06 15:47 50.17135 9.45219 8061 ft 253 kts 14°
2026-05-06 15:47 50.18860 9.45445 8003 ft 248 kts 347°
2026-05-06 15:47 50.20450 9.44543 7948 ft 242 kts 324°
2026-05-06 15:47 50.21688 9.42814 7891 ft 238 kts 303°
2026-05-06 15:48 50.22401 9.40525 7839 ft 241 kts 281°
2026-05-06 15:48 50.22482 9.37827 7794 ft 253 kts 257°
2026-05-06 15:48 50.21951 9.35205 7733 ft 255 kts 249°
2026-05-06 15:48 50.21344 9.32594 7674 ft 256 kts 249°
2026-05-06 15:49 50.20741 9.29990 7617 ft 255 kts 249°
2026-05-06 15:49 50.20138 9.27385 7556 ft 255 kts 249°
2026-05-06 15:49 50.19534 9.24776 7501 ft 255 kts 249°
2026-05-06 15:49 50.18938 9.22197 7445 ft 256 kts 249°
2026-05-06 15:50 50.18335 9.19595 7393 ft 255 kts 249°
2026-05-06 15:50 50.17733 9.16994 7339 ft 254 kts 249°
2026-05-06 15:50 50.17135 9.14407 7281 ft 253 kts 249°
2026-05-06 15:50 50.16528 9.11835 7221 ft 252 kts 248°
2026-05-06 15:51 50.15918 9.09266 7047 ft 253 kts 249°
2026-05-06 15:51 50.15316 9.06688 6760 ft 252 kts 249°
2026-05-06 15:51 50.14720 9.04129 6447 ft 251 kts 249°
2026-05-06 15:51 50.14126 9.01582 6129 ft 250 kts 249°
2026-05-06 15:52 50.13534 8.99049 5793 ft 248 kts 249°
2026-05-06 15:52 50.12940 8.96508 5451 ft 250 kts 249°
2026-05-06 15:52 50.12344 8.93964 5117 ft 252 kts 249°
2026-05-06 15:52 50.11737 8.91338 4777 ft 262 kts 249°
2026-05-06 15:53 50.11105 8.88678 4426 ft 262 kts 248°
2026-05-06 15:53 50.10472 8.85995 4050 ft 263 kts 250°
2026-05-06 15:53 50.09848 8.83336 3718 ft 260 kts 249°
2026-05-06 15:53 50.09244 8.80777 3393 ft 245 kts 250°